KLM0461 EHAM-LCPH

Flight info

Callsign KLM0461
Flight time 3h 45m
Altitude 37000
Route EDUPO Z739 MISGO DCT DIXAT DCT DOJOH DCT DODEN DCT NEGIX DCT DINKU DCT BESNI DCT GOMIG DCT BEDOX DCT VABEK UL603 OLOTA DCT DISOR DCT KOROS DCT MES UL609 RDS UM601 EVENO DCT DASNI DCT TOBAL
Aircraft B738/M-SDE2E3FGHIRWXY/LB1

Departure

Time 2026-04-19 05:54
Airport Amsterdam Airport Schiphol (EHAM)

Arrival

Time 2026-04-19 09:40
Airport Paphos International Airport (LCPH)
Time Latitude Longitude Altitude Speed Heading
2026-04-19 05:19 52.30895 4.77367 -2 ft 0 kts
2026-04-19 05:34 52.30890 4.77366 -2 ft 4 kts
2026-04-19 05:34 52.30863 4.77369 -2 ft 4 kts 355°
2026-04-19 05:35 52.30847 4.77365 -2 ft 3 kts 60°
2026-04-19 05:35 52.30842 4.77337 -2 ft 0 kts 79°
2026-04-19 05:38 52.30842 4.77338 -2 ft 0 kts 79°
2026-04-19 05:39 52.30842 4.77351 -2 ft 2 kts 88°
2026-04-19 05:39 52.30839 4.77386 -2 ft 4 kts 97°
2026-04-19 05:39 52.30836 4.77438 -2 ft 5 kts 95°
2026-04-19 05:39 52.30833 4.77510 -2 ft 7 kts 94°
2026-04-19 05:40 52.30851 4.77591 -2 ft 8 kts 40°
2026-04-19 05:40 52.30911 4.77612 -2 ft 10 kts
2026-04-19 05:40 52.30984 4.77618 -2 ft 11 kts
2026-04-19 05:40 52.31068 4.77626 -2 ft 13 kts
2026-04-19 05:41 52.31162 4.77634 -2 ft 14 kts
2026-04-19 05:41 52.31266 4.77643 -2 ft 16 kts
2026-04-19 05:41 52.31379 4.77654 -2 ft 17 kts
2026-04-19 05:41 52.31489 4.77590 -2 ft 18 kts 318°
2026-04-19 05:42 52.31568 4.77431 -2 ft 19 kts 288°
2026-04-19 05:42 52.31572 4.77213 -2 ft 19 kts 266°
2026-04-19 05:42 52.31565 4.76996 -2 ft 19 kts 266°
2026-04-19 05:42 52.31557 4.76777 -2 ft 19 kts 266°
2026-04-19 05:43 52.31550 4.76559 -2 ft 19 kts 266°
2026-04-19 05:43 52.31542 4.76338 -2 ft 19 kts 266°
2026-04-19 05:43 52.31534 4.76122 -2 ft 19 kts 266°
2026-04-19 05:43 52.31527 4.75903 -2 ft 20 kts 267°
2026-04-19 05:44 52.31520 4.75681 -2 ft 19 kts 267°
2026-04-19 05:44 52.31513 4.75466 -2 ft 19 kts 267°
2026-04-19 05:44 52.31505 4.75245 -2 ft 20 kts 266°
2026-04-19 05:44 52.31497 4.75015 -2 ft 19 kts 266°
2026-04-19 05:45 52.31489 4.74798 -2 ft 19 kts 267°
2026-04-19 05:45 52.31483 4.74598 -2 ft 17 kts 267°
2026-04-19 05:45 52.31478 4.74441 -1 ft 12 kts 267°
2026-04-19 05:45 52.31495 4.74316 -2 ft 12 kts 321°
2026-04-19 05:46 52.31580 4.74301 -2 ft 13 kts
2026-04-19 05:46 52.31676 4.74310 -2 ft 15 kts
2026-04-19 05:46 52.31782 4.74321 -2 ft 16 kts
2026-04-19 05:46 52.31896 4.74329 -2 ft 16 kts
2026-04-19 05:47 52.31990 4.74332 -2 ft 12 kts 351°
2026-04-19 05:47 52.32030 4.74219 -2 ft 13 kts 276°
2026-04-19 05:47 52.32036 4.74061 -2 ft 15 kts 274°
2026-04-19 05:47 52.32041 4.73881 -2 ft 16 kts 272°
2026-04-19 05:48 52.32048 4.73698 -1 ft 17 kts 274°
2026-04-19 05:48 52.32055 4.73512 -2 ft 16 kts 274°
2026-04-19 05:48 52.32094 4.73351 -2 ft 16 kts 309°
2026-04-19 05:48 52.32179 4.73225 -2 ft 17 kts 318°
2026-04-19 05:49 52.32272 4.73093 -2 ft 18 kts 320°
2026-04-19 05:49 52.32372 4.72956 -2 ft 19 kts 320°
2026-04-19 05:49 52.32476 4.72810 -2 ft 20 kts 319°
2026-04-19 05:49 52.32576 4.72670 -2 ft 19 kts 319°
2026-04-19 05:50 52.32677 4.72523 -2 ft 20 kts 314°
2026-04-19 05:50 52.32765 4.72361 -2 ft 19 kts 311°
2026-04-19 05:50 52.32855 4.72194 -2 ft 20 kts 311°
2026-04-19 05:50 52.32947 4.72024 -2 ft 20 kts 311°
2026-04-19 05:51 52.33035 4.71860 -2 ft 19 kts 311°
2026-04-19 05:51 52.33120 4.71702 -2 ft 16 kts 309°
2026-04-19 05:51 52.33139 4.71530 -2 ft 17 kts 245°
2026-04-19 05:51 52.33054 4.71389 -2 ft 18 kts 221°
2026-04-19 05:52 52.32959 4.71251 -2 ft 19 kts 221°
2026-04-19 05:52 52.32870 4.71106 -2 ft 16 kts 242°
2026-04-19 05:52 52.32868 4.70943 -3 ft 9 kts 282°
2026-04-19 05:52 52.32908 4.70896 -3 ft 8 kts 355°
2026-04-19 05:53 52.32934 4.70898 -3 ft 6 kts
2026-04-19 05:53 52.33092 4.70914 -5 ft 40 kts
2026-04-19 05:53 52.33557 4.70954 -1 ft 94 kts
2026-04-19 05:53 52.34382 4.71031 -5 ft 142 kts
2026-04-19 05:54 52.35465 4.71139 257 ft 161 kts
2026-04-19 05:54 52.36631 4.71252 717 ft 173 kts
2026-04-19 05:54 52.37853 4.71366 1281 ft 180 kts
2026-04-19 05:54 52.39129 4.71491 1837 ft 186 kts
2026-04-19 05:55 52.40441 4.71606 2412 ft 192 kts
2026-04-19 05:55 52.41839 4.71746 2827 ft 208 kts
2026-04-19 05:55 52.43305 4.72216 3279 ft 227 kts 22°
2026-04-19 05:55 52.44687 4.73654 3872 ft 235 kts 33°
2026-04-19 05:56 52.45983 4.75207 4405 ft 234 kts 32°
2026-04-19 05:56 52.47303 4.76762 4934 ft 231 kts 39°
2026-04-19 05:56 52.48156 4.79091 5453 ft 254 kts 75°
2026-04-19 05:56 52.48209 4.82029 6085 ft 266 kts 92°
2026-04-19 05:57 52.48182 4.85071 6740 ft 270 kts 83°
2026-04-19 05:57 52.48420 4.88189 7464 ft 280 kts 79°
2026-04-19 05:57 52.48502 4.91416 8183 ft 290 kts 98°
2026-04-19 05:57 52.47650 4.94407 8904 ft 295 kts 131°
2026-04-19 05:58 52.45971 4.96300 9656 ft 296 kts 159°
2026-04-19 05:58 52.44024 4.97417 10444 ft 297 kts 162°
2026-04-19 05:58 52.42123 4.98791 11207 ft 305 kts 152°
2026-04-19 05:58 52.40308 5.00808 11656 ft 323 kts 143°
2026-04-19 05:59 52.38515 5.03199 12070 ft 342 kts 142°
2026-04-19 05:59 52.36607 5.05689 12518 ft 358 kts 144°
2026-04-19 05:59 52.34573 5.08104 13224 ft 364 kts 147°
2026-04-19 05:59 52.32562 5.10698 13953 ft 371 kts 139°
2026-04-19 06:00 52.30746 5.13718 14740 ft 376 kts 134°
2026-04-19 06:00 52.29053 5.16993 15532 ft 379 kts 131°
2026-04-19 06:00 52.27393 5.20294 16276 ft 382 kts 132°
2026-04-19 06:00 52.25650 5.23594 17008 ft 386 kts 134°
2026-04-19 06:01 52.23872 5.26893 17731 ft 389 kts 133°
2026-04-19 06:01 52.22193 5.30392 18433 ft 394 kts 129°
2026-04-19 06:01 52.20636 5.34091 19108 ft 398 kts 126°
2026-04-19 06:01 52.19113 5.37881 19755 ft 401 kts 127°
2026-04-19 06:02 52.17541 5.41662 20398 ft 404 kts 128°
2026-04-19 06:02 52.15903 5.45406 21024 ft 407 kts 129°
2026-04-19 06:02 52.14229 5.49140 21619 ft 410 kts 130°
2026-04-19 06:02 52.12546 5.52916 22198 ft 413 kts 129°
2026-04-19 06:03 52.10869 5.56743 22763 ft 417 kts 129°
2026-04-19 06:03 52.09193 5.60602 23299 ft 419 kts 129°
2026-04-19 06:03 52.07499 5.64492 23818 ft 422 kts 129°
2026-04-19 06:03 52.05772 5.68357 24320 ft 424 kts 131°
2026-04-19 06:04 52.03916 5.72092 24783 ft 425 kts 135°
2026-04-19 06:04 52.01932 5.75669 25225 ft 427 kts 137°
2026-04-19 06:04 51.99900 5.79208 25636 ft 431 kts 137°
2026-04-19 06:04 51.97890 5.82824 26194 ft 430 kts 135°
2026-04-19 06:05 51.95939 5.86491 26708 ft 431 kts 135°
2026-04-19 06:05 51.94001 5.90199 27243 ft 430 kts 135°
2026-04-19 06:05 51.92055 5.93878 27732 ft 430 kts 135°
2026-04-19 06:05 51.90093 5.97518 28225 ft 429 kts 136°
2026-04-19 06:06 51.88118 6.01144 28711 ft 429 kts 136°
2026-04-19 06:06 51.86145 6.04769 29165 ft 429 kts 136°
2026-04-19 06:06 51.84180 6.08397 29614 ft 429 kts 136°
2026-04-19 06:06 51.82245 6.11982 30097 ft 428 kts 136°
2026-04-19 06:07 51.80253 6.15661 30485 ft 429 kts 136°
2026-04-19 06:07 51.78314 6.19230 30906 ft 429 kts 136°
2026-04-19 06:07 51.76343 6.22848 31297 ft 430 kts 136°
2026-04-19 06:07 51.74354 6.26485 31555 ft 434 kts 136°
2026-04-19 06:08 51.72331 6.30162 31691 ft 440 kts 136°
2026-04-19 06:08 51.70293 6.33867 31934 ft 444 kts 136°
2026-04-19 06:08 51.68219 6.37633 31977 ft 452 kts 136°
2026-04-19 06:09 51.63971 6.45334 32082 ft 467 kts 136°
2026-04-19 06:09 51.59601 6.53253 32324 ft 476 kts 136°
2026-04-19 06:09 51.57400 6.57235 32570 ft 478 kts 137°
2026-04-19 06:10 51.55185 6.61229 32847 ft 478 kts 137°
2026-04-19 06:10 51.52970 6.65212 33109 ft 478 kts 137°
2026-04-19 06:10 51.50752 6.69194 33364 ft 479 kts 137°
2026-04-19 06:10 51.48534 6.73172 33650 ft 479 kts 137°
2026-04-19 06:11 51.46310 6.77157 33935 ft 479 kts 137°
2026-04-19 06:11 51.44090 6.81127 34185 ft 479 kts 137°
2026-04-19 06:11 51.41859 6.85106 34451 ft 479 kts 137°
2026-04-19 06:12 51.37537 6.93161 34979 ft 482 kts 133°
2026-04-19 06:12 51.35496 6.97422 35246 ft 483 kts 131°
2026-04-19 06:12 51.33475 7.01709 35503 ft 482 kts 132°
2026-04-19 06:12 51.31416 7.05932 35767 ft 481 kts 133°
2026-04-19 06:13 51.29311 7.10084 36008 ft 481 kts 134°
2026-04-19 06:13 51.27158 7.14254 36255 ft 479 kts 135°
2026-04-19 06:13 51.24849 7.17938 36481 ft 474 kts 143°
2026-04-19 06:13 51.22367 7.21384 36697 ft 473 kts 144°
2026-04-19 06:14 51.19848 7.24751 36988 ft 470 kts 144°
2026-04-19 06:14 51.17353 7.28115 37154 ft 472 kts 144°
2026-04-19 06:14 51.12404 7.35033 37180 ft 474 kts 143°
2026-04-19 06:15 51.07447 7.41954 37199 ft 474 kts 143°
2026-04-19 06:15 51.02438 7.48815 37184 ft 476 kts 143°
2026-04-19 06:16 50.97437 7.55695 37188 ft 475 kts 143°
2026-04-19 06:16 50.92485 7.62507 37165 ft 463 kts 143°
2026-04-19 06:17 50.87659 7.69096 37174 ft 461 kts 144°
2026-04-19 06:17 50.82783 7.75748 37161 ft 464 kts 143°
2026-04-19 06:18 50.78079 7.82770 37141 ft 465 kts 140°
2026-04-19 06:18 50.73435 7.89877 37134 ft 463 kts 141°
2026-04-19 06:19 50.68714 7.96779 37132 ft 462 kts 142°
2026-04-19 06:19 50.64009 8.03716 37121 ft 463 kts 141°
2026-04-19 06:20 50.59388 8.10814 37117 ft 467 kts 135°
2026-04-19 06:20 50.55317 8.18843 37129 ft 470 kts 131°
2026-04-19 06:21 50.51323 8.26979 37119 ft 468 kts 133°
2026-04-19 06:21 50.47205 8.34896 37125 ft 468 kts 134°
2026-04-19 06:22 50.43110 8.42863 37121 ft 469 kts 133°
2026-04-19 06:22 50.39067 8.50793 37112 ft 462 kts 133°
2026-04-19 06:23 50.34888 8.58425 37114 ft 458 kts 138°
2026-04-19 06:23 50.30456 8.65487 37122 ft 459 kts 139°
2026-04-19 06:24 50.26051 8.72820 37122 ft 466 kts 137°
2026-04-19 06:24 50.21636 8.80311 37125 ft 470 kts 137°
2026-04-19 06:25 50.17122 8.87754 37120 ft 473 kts 138°
2026-04-19 06:25 50.13367 8.93955 37114 ft 473 kts 138°
2026-04-19 06:26 50.08860 9.01431 37114 ft 472 kts 138°
2026-04-19 06:26 50.03621 9.10055 37124 ft 471 kts 138°
2026-04-19 06:27 49.99837 9.16262 37121 ft 472 kts 138°
2026-04-19 06:27 49.95322 9.23662 37127 ft 472 kts 138°
2026-04-19 06:28 49.90799 9.31049 37121 ft 472 kts 138°
2026-04-19 06:28 49.86270 9.38420 37120 ft 473 kts 138°
2026-04-19 06:29 49.81731 9.45791 37111 ft 472 kts 138°
2026-04-19 06:29 49.77189 9.53144 37107 ft 472 kts 138°
2026-04-19 06:30 49.72671 9.60435 37091 ft 472 kts 138°
2026-04-19 06:30 49.68122 9.67759 37077 ft 472 kts 138°
2026-04-19 06:31 49.63571 9.75062 37072 ft 472 kts 138°
2026-04-19 06:31 49.59012 9.82357 37096 ft 472 kts 139°
2026-04-19 06:32 49.54450 9.89636 37097 ft 472 kts 139°
2026-04-19 06:32 49.49882 9.96905 37084 ft 473 kts 139°
2026-04-19 06:33 49.45309 10.04159 37080 ft 472 kts 139°
2026-04-19 06:33 49.40728 10.11407 37083 ft 473 kts 139°
2026-04-19 06:34 49.36137 10.18648 37074 ft 473 kts 139°
2026-04-19 06:34 49.31549 10.25868 37069 ft 473 kts 139°
2026-04-19 06:35 49.26947 10.33083 37063 ft 473 kts 139°
2026-04-19 06:35 49.22340 10.40270 37062 ft 473 kts 139°
2026-04-19 06:36 49.17619 10.47273 37068 ft 473 kts 141°
2026-04-19 06:36 49.12903 10.54184 37062 ft 473 kts 140°
2026-04-19 06:37 49.08169 10.61243 37065 ft 473 kts 140°
2026-04-19 06:37 49.03479 10.68171 37060 ft 473 kts 140°
2026-04-19 06:38 48.98743 10.75122 37067 ft 473 kts 140°
2026-04-19 06:38 48.94005 10.82084 37063 ft 473 kts 140°
2026-04-19 06:39 48.89236 10.89070 37066 ft 474 kts 140°
2026-04-19 06:39 48.84477 10.96012 37065 ft 474 kts 140°
2026-04-19 06:40 48.79719 11.02940 37068 ft 473 kts 140°
2026-04-19 06:40 48.74964 11.09844 37073 ft 474 kts 140°
2026-04-19 06:41 48.70219 11.16711 37066 ft 474 kts 140°
2026-04-19 06:41 48.65459 11.23610 37058 ft 475 kts 137°
2026-04-19 06:42 48.63407 11.27638 37062 ft 481 kts 120°
2026-04-19 06:42 48.61998 11.32225 37095 ft 484 kts 116°
2026-04-19 06:42 48.58990 11.41231 37069 ft 481 kts 121°
2026-04-19 06:43 48.55776 11.50094 37066 ft 482 kts 120°
2026-04-19 06:43 48.52728 11.59137 37063 ft 484 kts 118°
2026-04-19 06:44 48.49646 11.68151 37064 ft 483 kts 120°
2026-04-19 06:44 48.46505 11.77107 37064 ft 483 kts 120°
2026-04-19 06:45 48.43395 11.86082 37061 ft 483 kts 119°
2026-04-19 06:45 48.40281 11.95034 37061 ft 483 kts 119°
2026-04-19 06:46 48.37147 12.03968 37066 ft 483 kts 119°
2026-04-19 06:46 48.34028 12.12849 37061 ft 484 kts 119°
2026-04-19 06:47 48.30884 12.21778 37062 ft 483 kts 120°
2026-04-19 06:47 48.27729 12.30693 37062 ft 483 kts 120°
2026-04-19 06:48 48.24569 12.39598 37060 ft 483 kts 120°
2026-04-19 06:48 48.21407 12.48481 37061 ft 483 kts 120°
2026-04-19 06:49 48.18234 12.57361 37062 ft 483 kts 120°
2026-04-19 06:49 48.15055 12.66222 37062 ft 483 kts 120°
2026-04-19 06:50 48.11243 12.74421 37108 ft 479 kts 133°
2026-04-19 06:50 48.06817 12.81897 37067 ft 480 kts 133°
2026-04-19 06:51 48.02507 12.89533 37076 ft 481 kts 131°
2026-04-19 06:51 47.98210 12.97187 37072 ft 481 kts 132°
2026-04-19 06:52 47.93882 13.04707 37075 ft 482 kts 132°
2026-04-19 06:52 47.89532 13.12307 37061 ft 482 kts 132°
2026-04-19 06:53 47.85188 13.19900 37065 ft 481 kts 132°
2026-04-19 06:53 47.80826 13.27469 37065 ft 482 kts 132°
2026-04-19 06:54 47.76460 13.35034 37068 ft 482 kts 132°
2026-04-19 06:54 47.72089 13.42591 37064 ft 482 kts 132°
2026-04-19 06:55 47.67709 13.50136 37067 ft 482 kts 132°
2026-04-19 06:55 47.63327 13.57668 37097 ft 482 kts 132°
2026-04-19 06:56 47.58938 13.65189 37071 ft 482 kts 132°
2026-04-19 06:56 47.54548 13.72690 37084 ft 482 kts 132°
2026-04-19 06:57 47.50175 13.80139 37098 ft 483 kts 132°
2026-04-19 06:57 47.45768 13.87632 37084 ft 482 kts 132°
2026-04-19 06:58 47.41353 13.95112 37092 ft 482 kts 132°
2026-04-19 06:58 47.36940 14.02568 37114 ft 482 kts 132°
2026-04-19 06:59 47.32521 14.10014 37113 ft 483 kts 132°
2026-04-19 06:59 47.28092 14.17458 37119 ft 483 kts 132°
2026-04-19 07:00 47.23664 14.24879 37115 ft 481 kts 132°
2026-04-19 07:00 47.19237 14.32278 37137 ft 482 kts 132°
2026-04-19 07:01 47.14799 14.39676 37140 ft 482 kts 132°
2026-04-19 07:01 47.10360 14.47054 37136 ft 482 kts 132°
2026-04-19 07:02 47.05913 14.54426 37134 ft 482 kts 132°
2026-04-19 07:02 47.01462 14.61784 37113 ft 482 kts 132°
2026-04-19 07:03 46.97006 14.69130 37116 ft 482 kts 132°
2026-04-19 07:03 46.92579 14.76410 37127 ft 482 kts 132°
2026-04-19 07:04 46.88082 14.83783 37116 ft 482 kts 132°
2026-04-19 07:04 46.83647 14.91033 37122 ft 481 kts 132°
2026-04-19 07:05 46.79178 14.98324 37126 ft 481 kts 132°
2026-04-19 07:05 46.74707 15.05597 37117 ft 481 kts 132°
2026-04-19 07:06 46.70229 15.12859 37114 ft 481 kts 132°
2026-04-19 07:06 46.65753 15.20100 37111 ft 481 kts 132°
2026-04-19 07:07 46.61272 15.27330 37102 ft 481 kts 132°
2026-04-19 07:07 46.56792 15.34539 37107 ft 480 kts 132°
2026-04-19 07:08 46.52306 15.41738 37118 ft 481 kts 132°
2026-04-19 07:08 46.47806 15.48944 37124 ft 481 kts 132°
2026-04-19 07:09 46.43304 15.56129 37113 ft 481 kts 132°
2026-04-19 07:09 46.38806 15.63289 37116 ft 480 kts 132°
2026-04-19 07:10 46.35071 15.69221 37116 ft 480 kts 132°
2026-04-19 07:10 46.30556 15.76375 37121 ft 481 kts 132°
2026-04-19 07:11 46.26040 15.83512 37117 ft 480 kts 132°
2026-04-19 07:11 46.21570 15.90672 37123 ft 480 kts 131°
2026-04-19 07:12 46.17114 15.97836 37118 ft 480 kts 132°
2026-04-19 07:12 46.12625 16.04975 37121 ft 480 kts 132°
2026-04-19 07:13 46.08141 16.12104 37120 ft 480 kts 131°
2026-04-19 07:13 46.03655 16.19229 37118 ft 480 kts 132°
2026-04-19 07:14 45.99159 16.26339 37121 ft 480 kts 132°
2026-04-19 07:14 45.94658 16.33441 37121 ft 480 kts 132°
2026-04-19 07:15 45.90157 16.40527 37119 ft 480 kts 132°
2026-04-19 07:16 45.83390 16.51142 37117 ft 480 kts 132°
2026-04-19 07:16 45.78875 16.58204 37118 ft 481 kts 132°
2026-04-19 07:17 45.74348 16.65267 37123 ft 481 kts 132°
2026-04-19 07:17 45.69815 16.72318 37129 ft 481 kts 132°
2026-04-19 07:18 45.65281 16.79354 37128 ft 481 kts 132°
2026-04-19 07:18 45.60771 16.86334 37126 ft 481 kts 132°
2026-04-19 07:19 45.56197 16.93397 37126 ft 481 kts 132°
2026-04-19 07:19 45.51649 17.00400 37129 ft 482 kts 132°
2026-04-19 07:20 45.47118 17.07358 37133 ft 481 kts 132°
2026-04-19 07:20 45.42558 17.14344 37136 ft 482 kts 132°
2026-04-19 07:21 45.37963 17.21368 37141 ft 481 kts 132°
2026-04-19 07:21 45.33391 17.28336 37140 ft 481 kts 132°
2026-04-19 07:22 45.28821 17.35283 37138 ft 481 kts 132°
2026-04-19 07:22 45.24240 17.42232 37142 ft 482 kts 132°
2026-04-19 07:23 45.19675 17.49134 37142 ft 483 kts 132°
2026-04-19 07:23 45.15079 17.56071 37141 ft 483 kts 132°
2026-04-19 07:24 45.10483 17.62991 37142 ft 482 kts 132°
2026-04-19 07:24 45.05881 17.69897 37142 ft 482 kts 132°
2026-04-19 07:25 45.01274 17.76796 37142 ft 482 kts 132°
2026-04-19 07:25 44.96657 17.83694 37148 ft 483 kts 132°
2026-04-19 07:26 44.92032 17.90586 37148 ft 483 kts 132°
2026-04-19 07:26 44.87408 17.97460 37148 ft 483 kts 132°
2026-04-19 07:27 44.82780 18.04319 37140 ft 483 kts 132°
2026-04-19 07:27 44.78141 18.11181 37139 ft 484 kts 132°
2026-04-19 07:28 44.73487 18.18047 37139 ft 484 kts 132°
2026-04-19 07:28 44.68843 18.24881 37139 ft 483 kts 132°
2026-04-19 07:29 44.64190 18.31711 37150 ft 484 kts 132°
2026-04-19 07:29 44.59530 18.38533 37149 ft 484 kts 132°
2026-04-19 07:30 44.54868 18.45345 37148 ft 484 kts 132°
2026-04-19 07:30 44.50195 18.52154 37144 ft 484 kts 132°
2026-04-19 07:31 44.45524 18.58941 37149 ft 483 kts 132°
2026-04-19 07:31 44.40851 18.65717 37145 ft 484 kts 132°
2026-04-19 07:32 44.36168 18.72490 37142 ft 484 kts 132°
2026-04-19 07:32 44.31477 18.79259 37146 ft 485 kts 132°
2026-04-19 07:33 44.26783 18.86014 37144 ft 484 kts 132°
2026-04-19 07:33 44.22089 18.92755 37149 ft 484 kts 132°
2026-04-19 07:34 44.17390 18.99484 37156 ft 484 kts 132°
2026-04-19 07:34 44.12687 19.06203 37156 ft 484 kts 132°
2026-04-19 07:35 44.07982 19.12911 37164 ft 484 kts 132°
2026-04-19 07:35 44.03268 19.19614 37166 ft 485 kts 132°
2026-04-19 07:36 43.98553 19.26301 37159 ft 484 kts 132°
2026-04-19 07:36 43.93828 19.32988 37151 ft 485 kts 132°
2026-04-19 07:37 43.89102 19.39658 37158 ft 485 kts 132°
2026-04-19 07:37 43.84371 19.46320 37154 ft 484 kts 132°
2026-04-19 07:38 43.79649 19.52952 37145 ft 484 kts 132°
2026-04-19 07:38 43.74919 19.59584 37150 ft 485 kts 132°
2026-04-19 07:39 43.70178 19.66211 37150 ft 484 kts 132°
2026-04-19 07:39 43.65436 19.72826 37147 ft 484 kts 132°
2026-04-19 07:40 43.60695 19.79424 37150 ft 484 kts 132°
2026-04-19 07:40 43.55948 19.86011 37156 ft 484 kts 132°
2026-04-19 07:41 43.51229 19.92545 37151 ft 484 kts 133°
2026-04-19 07:41 43.46448 19.99153 37153 ft 484 kts 133°
2026-04-19 07:42 43.41687 20.05717 37142 ft 485 kts 132°
2026-04-19 07:42 43.36916 20.12276 37144 ft 484 kts 132°
2026-04-19 07:43 43.32146 20.18819 37152 ft 484 kts 133°
2026-04-19 07:43 43.27370 20.25357 37151 ft 486 kts 133°
2026-04-19 07:44 43.22607 20.31860 37137 ft 486 kts 132°
2026-04-19 07:44 43.17810 20.38394 37144 ft 486 kts 132°
2026-04-19 07:45 43.13004 20.44927 37160 ft 487 kts 133°
2026-04-19 07:45 43.08184 20.51462 37160 ft 488 kts 132°
2026-04-19 07:46 43.03364 20.57980 37158 ft 487 kts 132°
2026-04-19 07:46 42.98532 20.64483 37161 ft 487 kts 133°
2026-04-19 07:47 42.93631 20.70868 37161 ft 487 kts 134°
2026-04-19 07:47 42.88718 20.77237 37163 ft 487 kts 133°
2026-04-19 07:48 42.83823 20.83647 37172 ft 489 kts 133°
2026-04-19 07:48 42.78900 20.90044 37171 ft 488 kts 133°
2026-04-19 07:49 42.73972 20.96421 37185 ft 489 kts 133°
2026-04-19 07:49 42.69049 21.02799 37175 ft 489 kts 133°
2026-04-19 07:50 42.64113 21.09167 37174 ft 489 kts 133°
2026-04-19 07:50 42.59976 21.14493 37173 ft 489 kts 133°
2026-04-19 07:51 42.55070 21.20799 37175 ft 488 kts 133°
2026-04-19 07:51 42.50130 21.27134 37170 ft 490 kts 133°
2026-04-19 07:52 42.45171 21.33479 37171 ft 490 kts 133°
2026-04-19 07:52 42.40206 21.39815 37170 ft 490 kts 133°
2026-04-19 07:53 42.35241 21.46139 37164 ft 490 kts 133°
2026-04-19 07:53 42.30270 21.52455 37164 ft 491 kts 133°
2026-04-19 07:54 42.25295 21.58761 37172 ft 490 kts 133°
2026-04-19 07:54 42.20250 21.65050 37156 ft 491 kts 135°
2026-04-19 07:55 42.15091 21.71038 37148 ft 493 kts 136°
2026-04-19 07:55 42.09891 21.77130 37142 ft 492 kts 135°
2026-04-19 07:56 42.04805 21.83189 37152 ft 492 kts 135°
2026-04-19 07:56 41.99646 21.89240 37147 ft 492 kts 135°
2026-04-19 07:57 41.94485 21.95279 37147 ft 491 kts 135°
2026-04-19 07:57 41.89305 22.01356 37142 ft 492 kts 135°
2026-04-19 07:58 41.84175 22.07346 37141 ft 492 kts 135°
2026-04-19 07:58 41.78976 22.13400 37143 ft 492 kts 136°
2026-04-19 07:59 41.73804 22.19417 37149 ft 492 kts 136°
2026-04-19 07:59 41.68660 22.25384 37154 ft 492 kts 136°
2026-04-19 08:00 41.63483 22.31377 37139 ft 492 kts 136°
2026-04-19 08:00 41.58311 22.37351 37132 ft 491 kts 136°
2026-04-19 08:01 41.53142 22.43309 37130 ft 491 kts 136°
2026-04-19 08:01 41.47970 22.49258 37137 ft 491 kts 136°
2026-04-19 08:02 41.42791 22.55199 37126 ft 491 kts 136°
2026-04-19 08:02 41.37605 22.61138 37141 ft 491 kts 137°
2026-04-19 08:03 41.32425 22.67056 37133 ft 491 kts 137°
2026-04-19 08:03 41.27237 22.72968 37139 ft 490 kts 137°
2026-04-19 08:04 41.22017 22.78804 37125 ft 490 kts 139°
2026-04-19 08:04 41.16606 22.84326 37132 ft 491 kts 141°
2026-04-19 08:05 41.11218 22.89878 37131 ft 490 kts 139°
2026-04-19 08:05 41.05878 22.95515 37125 ft 490 kts 140°
2026-04-19 08:06 41.00507 23.01073 37121 ft 490 kts 140°
2026-04-19 08:06 40.95126 23.06628 37120 ft 490 kts 140°
2026-04-19 08:07 40.89772 23.12177 37120 ft 489 kts 140°
2026-04-19 08:07 40.84413 23.17704 37119 ft 489 kts 140°
2026-04-19 08:08 40.79043 23.23229 37119 ft 489 kts 141°
2026-04-19 08:08 40.73680 23.28738 37118 ft 488 kts 141°
2026-04-19 08:09 40.68318 23.34236 37116 ft 488 kts 141°
2026-04-19 08:09 40.62958 23.39718 37123 ft 487 kts 141°
2026-04-19 08:10 40.57600 23.45188 37120 ft 488 kts 141°
2026-04-19 08:10 40.52243 23.50645 37121 ft 486 kts 141°
2026-04-19 08:11 40.46895 23.56082 37122 ft 486 kts 141°
2026-04-19 08:11 40.41574 23.61479 37117 ft 485 kts 142°
2026-04-19 08:12 40.36197 23.66924 37112 ft 486 kts 142°
2026-04-19 08:12 40.30887 23.72288 37111 ft 484 kts 142°
2026-04-19 08:13 40.25552 23.77666 37105 ft 484 kts 142°
2026-04-19 08:13 40.20204 23.83047 37099 ft 484 kts 142°
2026-04-19 08:14 40.14857 23.88416 37101 ft 484 kts 142°
2026-04-19 08:14 40.06842 23.96444 37096 ft 483 kts 142°
2026-04-19 08:15 40.01507 24.01773 37102 ft 483 kts 142°
2026-04-19 08:15 39.96159 24.07106 37092 ft 483 kts 142°
2026-04-19 08:16 39.90815 24.12424 37098 ft 484 kts 142°
2026-04-19 08:16 39.85464 24.17736 37102 ft 483 kts 143°
2026-04-19 08:17 39.80110 24.23042 37092 ft 483 kts 143°
2026-04-19 08:17 39.74759 24.28334 37099 ft 484 kts 143°
2026-04-19 08:18 39.69401 24.33623 37086 ft 484 kts 143°
2026-04-19 08:18 39.64040 24.38903 37081 ft 484 kts 143°
2026-04-19 08:19 39.58667 24.44186 37084 ft 484 kts 143°
2026-04-19 08:19 39.53297 24.49455 37083 ft 484 kts 143°
2026-04-19 08:20 39.47917 24.54721 37097 ft 484 kts 143°
2026-04-19 08:20 39.42538 24.59979 37085 ft 484 kts 143°
2026-04-19 08:21 39.37155 24.65229 37084 ft 484 kts 144°
2026-04-19 08:21 39.31778 24.70462 37090 ft 484 kts 144°
2026-04-19 08:22 39.26402 24.75686 37085 ft 484 kts 144°
2026-04-19 08:22 39.21017 24.80905 37085 ft 485 kts 144°
2026-04-19 08:23 39.15618 24.86129 37087 ft 485 kts 144°
2026-04-19 08:23 39.10252 24.91321 37083 ft 486 kts 143°
2026-04-19 08:24 39.05163 24.97074 37094 ft 487 kts 137°
2026-04-19 08:24 39.00300 25.03132 37081 ft 486 kts 138°
2026-04-19 08:25 38.95291 25.08989 37086 ft 487 kts 139°
2026-04-19 08:25 38.90264 25.14841 37079 ft 487 kts 139°
2026-04-19 08:26 38.85294 25.20749 37079 ft 487 kts 139°
2026-04-19 08:26 38.80296 25.26615 37076 ft 487 kts 139°
2026-04-19 08:27 38.75290 25.32461 37076 ft 487 kts 139°
2026-04-19 08:27 38.70287 25.38325 37075 ft 488 kts 139°
2026-04-19 08:28 38.65277 25.44174 37069 ft 488 kts 139°
2026-04-19 08:28 38.60256 25.50019 37068 ft 488 kts 139°
2026-04-19 08:29 38.55270 25.55817 37067 ft 487 kts 140°
2026-04-19 08:29 38.50251 25.61644 37070 ft 488 kts 140°
2026-04-19 08:30 38.46039 25.66523 37068 ft 488 kts 140°
2026-04-19 08:30 38.41010 25.72336 37068 ft 487 kts 140°
2026-04-19 08:31 38.36014 25.78101 37068 ft 487 kts 140°
2026-04-19 08:31 38.30985 25.83894 37068 ft 488 kts 140°
2026-04-19 08:32 38.25943 25.89689 37063 ft 488 kts 140°
2026-04-19 08:32 38.20871 25.95414 37061 ft 487 kts 141°
2026-04-19 08:33 38.15728 26.01040 37060 ft 487 kts 141°
2026-04-19 08:33 38.10630 26.06691 37062 ft 486 kts 141°
2026-04-19 08:34 38.05538 26.12340 37057 ft 486 kts 141°
2026-04-19 08:34 38.00427 26.17962 37051 ft 486 kts 141°
2026-04-19 08:35 37.95324 26.23575 37052 ft 486 kts 141°
2026-04-19 08:35 37.90220 26.29185 37043 ft 486 kts 142°
2026-04-19 08:36 37.85110 26.34782 37033 ft 487 kts 142°
2026-04-19 08:36 37.79985 26.40373 37031 ft 486 kts 142°
2026-04-19 08:37 37.74862 26.45947 37025 ft 486 kts 142°
2026-04-19 08:37 37.69738 26.51515 37022 ft 485 kts 142°
2026-04-19 08:38 37.64625 26.57070 37017 ft 485 kts 142°
2026-04-19 08:38 37.59511 26.62627 37013 ft 485 kts 142°
2026-04-19 08:39 37.54401 26.68164 37013 ft 484 kts 142°
2026-04-19 08:39 37.49278 26.73702 37009 ft 485 kts 143°
2026-04-19 08:40 37.44159 26.79230 37004 ft 484 kts 143°
2026-04-19 08:40 37.39043 26.84753 37003 ft 485 kts 142°
2026-04-19 08:41 37.34133 26.90607 37004 ft 487 kts 138°
2026-04-19 08:41 37.29316 26.96567 36998 ft 486 kts 140°
2026-04-19 08:42 37.24380 27.02354 36994 ft 485 kts 141°
2026-04-19 08:42 37.19471 27.08174 36981 ft 486 kts 140°
2026-04-19 08:43 37.14578 27.14031 36962 ft 486 kts 140°
2026-04-19 08:43 37.09665 27.19839 36957 ft 485 kts 141°
2026-04-19 08:44 37.04760 27.25636 36961 ft 486 kts 140°
2026-04-19 08:44 36.99846 27.31449 36963 ft 486 kts 141°
2026-04-19 08:45 36.94935 27.37237 36949 ft 485 kts 141°
2026-04-19 08:45 36.90019 27.43018 36949 ft 485 kts 141°
2026-04-19 08:46 36.85106 27.48791 36947 ft 484 kts 141°
2026-04-19 08:46 36.80221 27.54519 36947 ft 485 kts 141°
2026-04-19 08:47 36.75299 27.60276 36935 ft 485 kts 141°
2026-04-19 08:47 36.70387 27.66016 36905 ft 484 kts 141°
2026-04-19 08:48 36.65470 27.71747 36915 ft 484 kts 141°
2026-04-19 08:48 36.60533 27.77491 36894 ft 485 kts 141°
2026-04-19 08:49 36.55607 27.83217 36894 ft 484 kts 141°
2026-04-19 08:49 36.50682 27.88926 36879 ft 484 kts 142°
2026-04-19 08:50 36.45749 27.94635 36874 ft 484 kts 142°
2026-04-19 08:50 36.40822 28.00326 36874 ft 484 kts 142°
2026-04-19 08:51 36.35910 28.06017 36881 ft 484 kts 140°
2026-04-19 08:51 36.33812 28.09309 36868 ft 494 kts 121°
2026-04-19 08:51 36.32597 28.13323 36945 ft 500 kts 106°
2026-04-19 08:52 36.30755 28.21679 36895 ft 503 kts 111°
2026-04-19 08:52 36.28395 28.29853 36873 ft 504 kts 112°
2026-04-19 08:53 36.26307 28.38081 36866 ft 503 kts 109°
2026-04-19 08:53 36.24261 28.46354 36865 ft 502 kts 110°
2026-04-19 08:54 36.22081 28.54574 36864 ft 502 kts 111°
2026-04-19 08:54 36.19938 28.62790 36865 ft 501 kts 110°
2026-04-19 08:55 36.17819 28.70991 36864 ft 500 kts 111°
2026-04-19 08:55 36.15666 28.79181 36858 ft 500 kts 111°
2026-04-19 08:56 36.13519 28.87346 36863 ft 499 kts 111°
2026-04-19 08:56 36.11367 28.95530 36865 ft 500 kts 111°
2026-04-19 08:57 36.09206 29.03705 36864 ft 499 kts 111°
2026-04-19 08:57 36.07049 29.11841 36863 ft 498 kts 111°
2026-04-19 08:58 36.04882 29.19988 36864 ft 498 kts 111°
2026-04-19 08:58 36.02716 29.28109 36869 ft 498 kts 111°
2026-04-19 08:59 36.00545 29.36227 36858 ft 498 kts 111°
2026-04-19 08:59 35.98365 29.44346 36856 ft 498 kts 111°
2026-04-19 09:00 35.96176 29.52473 36854 ft 499 kts 111°
2026-04-19 09:00 35.93992 29.60588 36855 ft 498 kts 111°
2026-04-19 09:01 35.91817 29.68702 36854 ft 498 kts 111°
2026-04-19 09:01 35.89630 29.76805 36854 ft 497 kts 112°
2026-04-19 09:02 35.87445 29.84872 36854 ft 496 kts 112°
2026-04-19 09:02 35.85255 29.92940 36855 ft 496 kts 112°
2026-04-19 09:03 35.83059 30.01005 36858 ft 497 kts 111°
2026-04-19 09:03 35.80999 30.09150 36856 ft 497 kts 110°
2026-04-19 09:04 35.79010 30.17297 36853 ft 497 kts 110°
2026-04-19 09:04 35.76953 30.25328 36845 ft 489 kts 111°
2026-04-19 09:05 35.74915 30.33335 36851 ft 486 kts 110°
2026-04-19 09:05 35.72933 30.41173 36851 ft 480 kts 111°
2026-04-19 09:06 35.70926 30.49020 36856 ft 481 kts 111°
2026-04-19 09:06 35.68910 30.56885 36848 ft 482 kts 111°
2026-04-19 09:07 35.66895 30.64751 36847 ft 483 kts 111°
2026-04-19 09:07 35.64874 30.72600 36130 ft 483 kts 111°
2026-04-19 09:08 35.63860 30.76519 35656 ft 480 kts 111°
2026-04-19 09:08 35.62841 30.80454 34919 ft 485 kts 111°
2026-04-19 09:08 35.61780 30.84383 34326 ft 482 kts 115°
2026-04-19 09:08 35.60180 30.87944 33841 ft 469 kts 132°
2026-04-19 09:09 35.58220 30.91089 33351 ft 465 kts 130°
2026-04-19 09:09 35.56416 30.94398 32688 ft 465 kts 126°
2026-04-19 09:09 35.54737 30.97818 31729 ft 468 kts 125°
2026-04-19 09:09 35.53053 31.01241 30720 ft 469 kts 126°
2026-04-19 09:10 35.51279 31.04611 29675 ft 468 kts 127°
2026-04-19 09:10 35.50068 31.06806 28934 ft 469 kts 128°
2026-04-19 09:10 35.47593 31.11240 27286 ft 473 kts 127°
2026-04-19 09:10 35.46377 31.13467 26634 ft 472 kts 127°
2026-04-19 09:11 35.44603 31.16791 25859 ft 463 kts 126°
2026-04-19 09:11 35.42298 31.21146 24932 ft 450 kts 126°
2026-04-19 09:11 35.40587 31.24344 24112 ft 445 kts 127°
2026-04-19 09:11 35.38889 31.27475 23292 ft 440 kts 127°
2026-04-19 09:12 35.37747 31.29571 22790 ft 435 kts 127°
2026-04-19 09:12 35.36077 31.32642 22002 ft 431 kts 127°
2026-04-19 09:12 35.34432 31.35683 21200 ft 426 kts 127°
2026-04-19 09:12 35.32805 31.38697 20450 ft 421 kts 127°
2026-04-19 09:13 35.31202 31.41663 19715 ft 415 kts 127°
2026-04-19 09:13 35.29617 31.44587 18999 ft 410 kts 127°
2026-04-19 09:13 35.28048 31.47476 18273 ft 405 kts 126°
2026-04-19 09:13 35.26500 31.50321 17555 ft 399 kts 126°
2026-04-19 09:14 35.24967 31.53138 16812 ft 395 kts 126°
2026-04-19 09:14 35.23455 31.55916 16082 ft 390 kts 126°
2026-04-19 09:14 35.21961 31.58662 15378 ft 385 kts 126°
2026-04-19 09:14 35.20486 31.61370 14683 ft 379 kts 126°
2026-04-19 09:15 35.19033 31.64035 14000 ft 374 kts 126°
2026-04-19 09:15 35.17602 31.66655 13332 ft 368 kts 126°
2026-04-19 09:15 35.14804 31.71775 11963 ft 357 kts 125°
2026-04-19 09:16 35.13436 31.74277 11266 ft 352 kts 125°
2026-04-19 09:16 35.12088 31.76740 10622 ft 345 kts 125°
2026-04-19 09:16 35.10777 31.79133 10272 ft 329 kts 125°
2026-04-19 09:16 35.09533 31.81406 9959 ft 314 kts 126°
2026-04-19 09:17 35.08348 31.83568 9710 ft 299 kts 126°
2026-04-19 09:17 35.07216 31.85631 9394 ft 289 kts 126°
2026-04-19 09:17 35.06104 31.87653 8986 ft 284 kts 126°
2026-04-19 09:17 35.05005 31.89650 8531 ft 283 kts 126°
2026-04-19 09:18 35.03913 31.91635 8096 ft 281 kts 125°
2026-04-19 09:18 35.02844 31.93580 7677 ft 278 kts 125°
2026-04-19 09:18 35.01769 31.95532 7257 ft 276 kts 125°
2026-04-19 09:18 35.00700 31.97473 6830 ft 275 kts 125°
2026-04-19 09:19 34.99638 31.99399 6408 ft 273 kts 125°
2026-04-19 09:19 34.98583 32.01315 6044 ft 271 kts 126°
2026-04-19 09:19 34.97538 32.03211 6029 ft 274 kts 126°
2026-04-19 09:19 34.96471 32.05142 6004 ft 273 kts 126°
2026-04-19 09:20 34.95418 32.07049 6005 ft 269 kts 126°
2026-04-19 09:20 34.94368 32.08949 6011 ft 272 kts 126°
2026-04-19 09:20 34.93314 32.10856 6007 ft 271 kts 126°
2026-04-19 09:20 34.92262 32.12760 6011 ft 271 kts 126°
2026-04-19 09:21 34.91210 32.14658 5886 ft 268 kts 126°
2026-04-19 09:21 34.90145 32.16574 5514 ft 269 kts 126°
2026-04-19 09:21 34.89097 32.18457 5187 ft 268 kts 126°
2026-04-19 09:21 34.88055 32.20330 5034 ft 265 kts 126°
2026-04-19 09:22 34.87020 32.22189 5027 ft 267 kts 127°
2026-04-19 09:22 34.85976 32.24063 5016 ft 266 kts 126°
2026-04-19 09:22 34.84936 32.25931 5012 ft 268 kts 126°
2026-04-19 09:22 34.83889 32.27807 5008 ft 268 kts 126°
2026-04-19 09:23 34.82853 32.29663 5009 ft 268 kts 126°
2026-04-19 09:23 34.81806 32.31539 5007 ft 269 kts 127°
2026-04-19 09:23 34.80756 32.33424 5008 ft 269 kts 127°
2026-04-19 09:23 34.79707 32.35303 4978 ft 267 kts 127°
2026-04-19 09:24 34.78669 32.37165 4618 ft 267 kts 127°
2026-04-19 09:24 34.77628 32.39035 4317 ft 265 kts 127°
2026-04-19 09:24 34.76605 32.40871 4182 ft 257 kts 127°
2026-04-19 09:24 34.75611 32.42656 4023 ft 251 kts 127°
2026-04-19 09:25 34.74637 32.44397 4005 ft 247 kts 127°
2026-04-19 09:25 34.73676 32.46114 4013 ft 245 kts 127°
2026-04-19 09:25 34.72718 32.47826 4012 ft 244 kts 127°
2026-04-19 09:25 34.71761 32.49527 4004 ft 243 kts 129°
2026-04-19 09:26 34.70594 32.50960 3747 ft 238 kts 154°
2026-04-19 09:26 34.69063 32.51449 3536 ft 225 kts 185°
2026-04-19 09:26 34.67584 32.50978 3292 ft 218 kts 205°
2026-04-19 09:26 34.66171 32.50266 3052 ft 219 kts 207°
2026-04-19 09:27 34.64792 32.49460 3028 ft 222 kts 208°
2026-04-19 09:27 34.63450 32.48555 3013 ft 219 kts 215°
2026-04-19 09:27 34.62190 32.47526 3012 ft 218 kts 216°
2026-04-19 09:27 34.60937 32.46481 3002 ft 218 kts 216°
2026-04-19 09:28 34.59689 32.45439 3004 ft 218 kts 216°
2026-04-19 09:28 34.58438 32.44395 3006 ft 217 kts 217°
2026-04-19 09:28 34.57138 32.43465 2985 ft 220 kts 202°
2026-04-19 09:28 34.55604 32.43366 3009 ft 228 kts 170°
2026-04-19 09:29 34.54199 32.44325 3019 ft 239 kts 138°
2026-04-19 09:29 34.53331 32.46061 3015 ft 244 kts 111°
2026-04-19 09:29 34.52844 32.48016 2757 ft 244 kts 108°
2026-04-19 09:29 34.52417 32.49998 2547 ft 241 kts 107°
2026-04-19 09:30 34.52017 32.51953 2361 ft 236 kts 107°
2026-04-19 09:30 34.51629 32.53869 2141 ft 233 kts 106°
2026-04-19 09:30 34.51247 32.55735 2120 ft 230 kts 106°
2026-04-19 09:30 34.50859 32.57615 2117 ft 230 kts 107°
2026-04-19 09:31 34.50469 32.59496 2116 ft 230 kts 107°
2026-04-19 09:31 34.50078 32.61379 2114 ft 231 kts 106°
2026-04-19 09:31 34.49687 32.63265 2114 ft 231 kts 107°
2026-04-19 09:31 34.49291 32.65166 2141 ft 238 kts 106°
2026-04-19 09:32 34.48925 32.67117 2102 ft 234 kts 99°
2026-04-19 09:32 34.49143 32.69102 2109 ft 241 kts 70°
2026-04-19 09:32 34.49835 32.70929 2114 ft 238 kts 65°
2026-04-19 09:32 34.50631 32.72624 2077 ft 227 kts 49°
2026-04-19 09:33 34.51929 32.73641 2098 ft 224 kts 14°
2026-04-19 09:33 34.53431 32.73752 2112 ft 213 kts 353°
2026-04-19 09:33 34.54904 32.73650 2104 ft 210 kts 354°
2026-04-19 09:33 34.56350 32.73562 2108 ft 208 kts 354°
2026-04-19 09:34 34.57786 32.73477 2101 ft 203 kts 354°
2026-04-19 09:34 34.59185 32.73395 2103 ft 200 kts 354°
2026-04-19 09:34 34.60565 32.73297 2099 ft 197 kts 351°
2026-04-19 09:34 34.61922 32.73103 2105 ft 196 kts 350°
2026-04-19 09:35 34.63232 32.72769 2096 ft 191 kts 335°
2026-04-19 09:35 34.64336 32.71920 2106 ft 187 kts 312°
2026-04-19 09:35 34.65071 32.70654 2085 ft 183 kts 290°
2026-04-19 09:35 34.65452 32.69189 2127 ft 185 kts 288°
2026-04-19 09:36 34.65950 32.67737 2141 ft 186 kts 289°
2026-04-19 09:36 34.66405 32.66285 2134 ft 182 kts 288°
2026-04-19 09:36 34.66846 32.64843 2129 ft 182 kts 288°
2026-04-19 09:36 34.67283 32.63409 2122 ft 178 kts 288°
2026-04-19 09:37 34.67697 32.62055 2140 ft 168 kts 288°
2026-04-19 09:37 34.68100 32.60728 1931 ft 166 kts 288°
2026-04-19 09:37 34.68481 32.59478 1697 ft 154 kts 288°
2026-04-19 09:37 34.68851 32.58258 1481 ft 151 kts 288°
2026-04-19 09:38 34.69210 32.57075 1289 ft 148 kts 288°
2026-04-19 09:38 34.69565 32.55904 1096 ft 147 kts 288°
2026-04-19 09:38 34.69916 32.54747 910 ft 146 kts 288°
2026-04-19 09:38 34.70261 32.53613 718 ft 144 kts 288°
2026-04-19 09:39 34.70610 32.52461 525 ft 143 kts 289°
2026-04-19 09:39 34.70952 32.51332 334 ft 142 kts 289°
2026-04-19 09:39 34.71290 32.50220 142 ft 142 kts 289°
2026-04-19 09:39 34.71619 32.49115 35 ft 128 kts 290°
2026-04-19 09:40 34.71806 32.48501 37 ft 23 kts 290°
2026-04-19 09:40 34.71801 32.48423 37 ft 8 kts 220°
2026-04-19 09:40 34.71752 32.48394 37 ft 8 kts 202°
2026-04-19 09:40 34.71696 32.48371 36 ft 8 kts 199°
2026-04-19 09:41 34.71641 32.48346 36 ft 8 kts 201°
2026-04-19 09:41 34.71587 32.48321 36 ft 8 kts 200°
2026-04-19 09:41 34.71533 32.48297 35 ft 8 kts 199°
2026-04-19 09:41 34.71480 32.48275 34 ft 8 kts 199°
2026-04-19 09:42 34.71428 32.48260 36 ft 7 kts 172°
2026-04-19 09:42 34.71399 32.48302 36 ft 7 kts 115°
2026-04-19 09:42 34.71382 32.48356 35 ft 7 kts 109°
2026-04-19 09:42 34.71364 32.48413 34 ft 7 kts 111°
2026-04-19 09:43 34.71346 32.48473 36 ft 8 kts 111°
2026-04-19 09:43 34.71307 32.48501 36 ft 7 kts 183°
2026-04-19 09:43 34.71265 32.48487 34 ft 6 kts 198°
2026-04-19 09:43 34.71244 32.48478 36 ft 1 kts 199°